Location: Adrasan
(36.3319°N, 30.4314°E)
Time: 18:26:30
(UTC+00:00)

Envisat - Visible Passes

Search period start: 14 June 2025 00:00
Search period end: 24 June 2025 00:00
Orbit: 761 x 763 km, 98.3° (Epoch: 14 June)

Date Brightness Start Highest point End Pass type
(mag) Time Alt. Az. Time Alt. Az. Time Alt. Az.
14 Jun 3.8 00:20:05 10° NNE 00:24:55 44° E 00:27:40 23° SSE visible
14 Jun 4.6 01:59:57 10° NNW 02:03:29 19° WNW 02:07:01 10° WSW visible
14 Jun 5.1 23:43:33 10° NE 23:47:01 18° E 23:49:32 13° SE visible
15 Jun 3.5 01:21:19 10° N 01:26:07 44° WNW 01:29:40 17° SW visible
16 Jun 3.0 00:43:27 10° NNE 00:48:32 78° ESE 00:51:31 25° S visible
17 Jun 4.4 00:06:15 10° NE 00:10:44 32° E 00:13:23 20° SE visible
17 Jun 4.2 01:45:22 10° NNW 01:49:31 26° WNW 01:53:31 11° WSW visible
17 Jun 5.4 23:30:27 10° ENE 23:32:46 13° E 23:35:04 10° ESE visible
18 Jun 3.1 01:07:04 10° N 01:12:03 61° WNW 01:15:22 21° SSW visible
19 Jun 3.5 00:29:25 10° NNE 00:34:24 56° E 00:37:13 25° S visible
19 Jun 4.8 02:09:53 10° NNW 02:12:50 16° WNW 02:15:46 10° W visible
19 Jun 4.8 23:52:33 10° NE 23:56:33 23° E 23:59:04 16° SE visible
20 Jun 3.8 01:30:56 10° N 01:35:30 35° WNW 01:39:12 15° SW visible
21 Jun 2.9 00:52:53 10° NNE 00:57:58 84° WNW 01:01:03 24° SSW visible
22 Jun 4.0 00:15:29 10° NNE 00:20:14 40° E 00:22:53 23° SSE visible
22 Jun 4.5 01:55:07 10° NNW 01:58:52 21° WNW 02:02:37 10° WSW visible
22 Jun 5.2 23:39:07 10° NE 23:42:19 17° E 23:44:44 12° SE visible
23 Jun 3.4 01:16:36 10° N 01:21:28 48° WNW 01:24:52 19° SW visible
